Location: Brécé
(48.1084°N, 1.4809°W)
Time: 06:47:52
(UTC+00:00)

Daily predictions for brighter satellites

Satellite Brightness Start Highest point End
(mag) Time Altitude Azimuth Time Altitude Azimuth Time Altitude Azimuth
Centaur D AC-29 4.3 20:12:22 10° SSW 20:17:28 20° SSE 20:31:03 10° ESE
Cosmos 2219 Rocket 3.5 20:39:29 10° NNW 20:44:26 29° NE 20:49:21 10° ESE
Cosmos 1400 Rocket 3.1 20:43:35 10° SSE 20:47:17 44° E 20:50:58 10° NNE
ATLAS CENTAUR R/B 1.7 20:47:00 10° S 20:50:08 32° ESE 20:53:22 10° NE
Cosmos 1954 Rocket 4.4 20:45:15 10° SSW 20:50:32 71° WNW 20:55:48 10° NNE
SPOT 3 Rocket 4.1 20:47:29 10° SE 20:52:21 44° ENE 20:57:14 10° N
Cosmos 2237 4.5 20:48:09 10° NNW 20:53:51 71° WSW 20:59:32 10° SSE
Meteor 1-13 Rocket 4.3 20:49:05 10° S 20:54:51 83° E 21:00:33 10° NNE
IRS-1C Rocket 4.2 20:51:33 10° SSE 20:56:49 90° ENE 21:02:07 10° NNW
USA 234 3.5 20:52:31 10° ENE 20:58:48 47° SE 21:05:03 10° SSW
Timation 1 Rocket 4.4 20:53:09 10° SSW 20:59:00 63° ESE 21:04:54 10° NE
Cosmos 1470 4.1 20:55:52 10° NNW 20:59:17 36° W 21:02:41 10° SSW
Cosmos 1356 Rocket 4.1 20:57:02 10° SSE 21:00:53 36° E 21:04:46 10° NNE
Landsat 4 4.2 20:58:17 10° SE 21:01:31 40° ENE 21:04:45 10° N
Cosmos 676 Rocket 4.5 20:57:35 10° SSW 21:02:53 68° WNW 21:08:11 10° NNE
Cosmos 1733 Rocket 3.7 20:59:51 10° N 21:04:05 43° ENE 21:08:16 10° SSE
Cosmos 1953 4.3 21:02:11 10° NNE 21:04:33 16° ENE 21:06:54 10° ESE
BlueWalker 3 3.7 21:03:43 10° SSE 21:05:22 13° SE 21:07:02 10° ESE
Terra 1.8 21:02:54 10° SSE 21:07:36 75° ENE 21:12:19 10° N
Cosmos 2360 Rocket 2.3 21:04:53 10° NNW 21:10:35 72° ENE 21:16:01 11° SE
In-Cosmos 22 4.3 21:06:30 10° SSW 21:12:07 81° WNW 21:17:38 10° N
ERS-1 Rocket 3.1 21:09:34 10° SSE 21:14:36 82° WSW 21:19:40 10° NNW
Cosmos 841 Rocket 3.9 21:12:17 10° NNW 21:17:30 61° WSW 21:22:39 10° S
Cosmos 1455 3.9 21:16:06 10° NNE 21:18:31 17° ENE 21:20:53 10° ESE
Okean-O 4.2 21:15:12 10° SSW 21:19:07 31° W 21:23:05 10° NNW
SL-27 R/B 2.0 21:16:34 10° S 21:19:14 48° ESE 21:21:58 10° NNE
S3M 4.2 21:13:40 10° NNW 21:20:03 76° W 21:26:19 10° S
SL-16 R/B 2.9 21:18:22 10° NW 21:23:49 49° WSW 21:29:14 10° S
BREEZE-M DEB (TANK) 3.6 21:21:11 10° WSW 21:24:58 76° SSE 21:38:56 10° ENE
USA 245 3.9 21:24:14 10° S 21:27:50 60° W 21:32:24 10° NNW
Cosmos 807 4.4 21:26:03 12° S 21:28:52 49° E 21:31:45 10° NNE
Aureole 3 4.0 21:25:42 12° SSE 21:29:14 46° E 21:34:02 10° NNE
Cosmos 2266 Rocket 4.3 21:22:57 10° SSW 21:29:17 74° W 21:35:44 10° N
Cosmos 2333 Rocket 2.3 21:24:21 10° NNW 21:30:09 90° W 21:35:13 14° SSE
Meteor 1-23 Rocket 4.3 21:24:47 10° SSW 21:30:28 85° WNW 21:36:16 10° N
Spot 2 Rocket 3.6 21:25:44 10° S 21:30:47 79° WSW 21:35:55 10° NNW
SL-14 R/B 3.1 21:27:22 10° S 21:31:08 87° ESE 21:34:58 10° N
Cosmos 1346 Rocket 2.7 21:28:50 10° NNW 21:32:43 89° WNW 21:36:01 14° S
Cosmos 2228 Rocket 3.2 21:31:35 10° S 21:36:09 89° E 21:40:45 10° N
Okean O Rocket 4.4 21:35:09 10° WSW 21:36:58 12° W 21:38:46 10° WNW
Cosmos 1655 Rocket 4.1 21:33:40 10° S 21:40:05 86° W 21:46:32 10° N
COSMOS 2455 4.4 21:38:30 13° SE 21:40:55 17° ESE 21:44:35 10° ENE
ATLAS 2AS CENTAUR R/B 2.7 21:35:38 10° NW 21:42:28 75° SW 21:47:58 16° SSE
Cosmos 1833 4.2 21:37:54 10° SSW 21:43:30 69° ESE 21:49:05 10° NNE
Landsat 5 3.6 21:39:54 10° NNE 21:43:51 52° E 21:47:13 14° S
Atlas Centaur 2 4.5 21:41:08 10° SW 21:45:52 17° SSW 21:49:23 13° SSE
Cosmos 2237 Rocket 4.1 21:42:00 10° N 21:46:11 21° NE 21:50:23 10° E
Meteor 1-4 Rocket 2.3 21:44:36 20° SSE 21:46:25 50° E 21:49:21 10° NNE
Cosmos 1242 Rocket 3.6 21:47:48 17° ESE 21:48:17 17° E 21:50:13 10° NE
USA 281 4.0 21:43:40 11° ESE 21:49:34 43° NE 21:55:43 10° NNW
Cosmos 2322 4.3 21:46:20 10° NNW 21:51:52 50° NE 21:56:21 15° SE
Okean 3 3.3 21:48:17 13° S 21:52:00 79° E 21:56:12 10° NNE
Meteor 1-16 Rocket 4.4 21:46:30 10° N 21:52:29 81° ENE 21:57:16 16° SSE
RESURS DK-1 4.0 21:49:52 10° NW 21:53:15 25° WSW 21:56:35 10° SSW
Ariane Rocket 3.6 21:50:55 11° S 21:55:44 51° W 22:00:43 10° NNW
Cosmos 839 Rocket 4.1 21:48:47 10° NW 21:55:48 87° SW 22:00:35 18° SSE
Spot 1 4.2 21:52:01 10° NNE 21:56:36 75° ESE 22:01:07 12° S
Cosmos 1758 4.5 21:53:55 10° NNW 21:57:34 38° W 22:01:10 10° SSW
Cosmos 2333 4.4 21:52:06 10° NNW 21:57:53 73° WSW 22:02:17 18° SSE
Cosmos 1300 3.8 21:55:06 10° NNW 21:58:23 35° W 22:01:29 11° SSW
H-2A R/B 4.3 21:58:24 11° ESE 22:01:15 21° ENE 22:04:26 10° NNE
MetOp-A 4.1 21:58:04 17° SSE 22:02:07 90° WNW 22:07:23 10° NNW
Cosmos 1703 Rocket 4.2 21:59:28 20° SSE 22:02:08 41° E 22:06:19 10° NNE
Cosmos 1862 Rocket 3.9 21:58:32 10° SSW 22:02:53 66° WNW 22:07:20 10° N
MOS 1 Rocket 4.4 21:58:02 10° S 22:03:13 46° W 22:08:17 10° NNW
Cosmos 2322 Rocket 3.3 22:00:10 10° NW 22:05:20 37° WSW 22:10:02 12° S
SL-4 R/B 2.4 22:03:45 10° WNW 22:07:37 60° NNE 22:11:44 10° E
Iridium 51 4.5 22:06:29 17° S 22:09:52 86° W 22:14:07 10° N
DNEPR-1 R/B 4.4 22:03:38 10° NW 22:10:20 73° WSW 22:14:04 21° SSE
Cosmos 2297 Rocket 3.8 22:11:53 15° ESE 22:13:40 18° E 22:17:17 10° ENE
SJ 16-02 1.6 22:11:19 10° SSW 22:15:36 68° WNW 22:19:55 10° NNE
SeaSat 1 4.0 22:14:32 11° SSW 22:18:20 26° WSW 22:22:28 10° NW
SL-08 R/B 4.4 22:13:36 17° S 22:18:22 73° E 22:24:28 10° NNE
Cosmos 968 Rocket 4.2 22:16:49 10° SW 22:21:50 53° WNW 22:26:57 10° NNE
Cosmos 158 Rocket 4.4 22:17:50 10° NNW 22:23:05 56° ENE 22:26:23 21° SE
BREEZE-M DEB (TANK) 3.3 22:20:38 10° W 22:23:19 76° N 22:30:11 10° E
BREEZE-M DEB (TANK) 3.2 22:24:50 10° W 22:26:55 31° SSW 22:27:27 29° S
Cosmos 1570 Rocket 4.0 22:21:38 10° NNW 22:27:01 82° ENE 22:30:19 24° SSE
Cosmos 1408 3.4 22:27:18 23° ESE 22:27:36 24° E 22:30:05 10° NE
ATLAS CENTAUR R/B 3.2 22:24:41 10° WSW 22:27:47 28° NW 22:30:59 10° NNE
Cosmos 2219 Rocket 2.5 22:23:10 10° NW 22:28:44 58° WSW 22:32:21 22° S
EXPRESS MD2 2.6 22:27:28 10° WNW 22:29:46 51° N 22:30:57 21° ENE
CZ-4C R/B 2.7 22:28:53 24° SE 22:30:05 27° ESE 22:34:31 10° ENE
COSMOS 2428 2.7 22:29:15 10° NNW 22:34:59 81° ENE 22:38:32 24° SSE
BREEZE-M DEB (TANK) 4.0 22:21:00 10° W 22:38:01 81° N 22:42:13 10° E
CENTAUR R/B 4.2 22:37:02 12° ESE 22:38:10 12° E 22:40:27 10° E
CZ-2C R/B 3.6 22:34:40 10° NNE 22:39:05 70° ESE 22:41:29 27° S
Cosmos 1953 2.9 22:36:58 10° NNW 22:40:39 46° W 22:42:38 24° SSW
Okean 2 4.0 22:38:14 17° SSW 22:41:10 50° WNW 22:45:07 10° N
Okean 1-7 3.7 22:38:24 15° SSW 22:41:48 51° WNW 22:46:02 10° N
USA 234 3.6 22:35:31 10° NE 22:42:02 69° NNW 22:48:30 10° WSW
BlueWalker 3 1.7 22:39:13 10° SW 22:42:55 65° SSE 22:46:39 10° ENE
Cosmos 405 Rocket 4.5 22:41:28 10° NNE 22:44:25 21° ENE 22:46:03 16° ESE
Cosmos 1315 Rocket 3.7 22:41:27 14° SW 22:44:36 44° WNW 22:48:27 10° N
Terra 4.2 22:43:11 10° WSW 22:45:44 14° W 22:48:19 10° NW
ARIANE 5 R/B 2.5 22:45:12 30° SSE 22:47:18 85° WSW 22:51:41 10° NNW
Cosmos 773 Rocket 4.5 22:44:41 10° NNW 22:49:44 51° ENE 22:52:47 23° SE
Cosmos 836 Rocket 4.5 22:47:39 10° NNW 22:52:54 84° ENE 22:55:41 28° SSE
Cosmos 1455 3.2 22:49:51 10° NNW 22:53:03 34° W 22:54:36 22° SW
Cosmos 2360 Rocket 4.0 22:49:56 10° NW 22:53:57 20° W 22:57:47 11° SW
Cosmos 371 Rocket 3.7 22:53:41 30° SSE 22:55:35 46° ESE 23:00:13 10° NNE
Cosmos 1908 Rocket 4.5 22:53:22 10° NNW 22:57:26 39° W 22:59:47 21° SSW
PSLV R/B 3.7 22:55:37 10° NNE 22:59:38 83° ESE 23:01:19 34° S
Cosmos 1782 Rocket 3.6 22:56:16 10° NNW 23:00:35 70° W 23:02:30 32° S
GP-B 3.5 22:56:47 10° N 23:01:08 59° W 23:03:32 25° SSW
Cosmos 2208 Rocket 4.1 22:57:50 10° NNW 23:03:00 68° WSW 23:05:33 30° S
Cosmos 1745 Rocket 4.0 22:59:46 22° S 23:04:04 85° W 23:10:30 10° N
CZ-2C R/B 4.2 23:01:50 26° S 23:04:45 88° E 23:28:23 10° N
Cosmos 1892 4.5 23:05:53 16° E 23:06:22 16° E 23:08:37 10° NE
Cosmos 1503 Rocket 4.4 23:07:09 30° SSE 23:09:23 48° ESE 23:14:28 10° NNE
H-2A R/B 3.8 23:07:15 10° NE 23:10:02 17° E 23:10:59 16° ESE
Nadezhda 1 Rocket 4.3 23:05:03 10° NNW 23:11:14 62° W 23:15:01 24° SSW
NOSS 8 (H) 4.2 23:11:36 37° SSW 23:12:53 76° SE 23:15:57 10° NE
Cosmos 1703 3.2 23:12:38 44° SSE 23:13:32 60° E 23:17:10 10° NNE
Cosmos 2333 Rocket 4.3 23:10:18 10° WNW 23:13:36 16° W 23:16:54 10° SW
Cosmos 1300 Rocket 3.8 23:11:47 10° NNW 23:16:01 58° W 23:17:47 32° SSW
Cosmos 1242 Rocket 4.3 23:18:56 14° WSW 23:20:10 18° WNW 23:22:11 10° NNW
Cosmos 2181 Rocket 4.2 23:17:19 10° N 23:23:28 59° ENE 23:26:52 26° SSE
SL-16 R/B 3.7 23:19:45 10° NNW 23:24:50 32° NE 23:29:52 10° ESE
SAR-Lupe-3 4.5 23:24:13 49° S 23:25:06 82° WSW 23:28:44 10° NNW
COSMOS 2455 2.8 23:21:34 19° SSW 23:25:59 87° ESE 23:32:04 10° NE
Cosmos 1825 3.4 23:26:53 23° E 23:27:14 24° E 23:30:04 10° NE
Spot 4 3.9 23:26:57 34° S 23:29:00 69° WSW 23:33:50 10° NNW
Cosmos 2151 Rocket 4.0 23:25:00 10° N 23:29:18 50° ENE 23:31:01 32° SE
BREEZE-M DEB (TANK) 2.9 23:29:09 55° SSW 23:29:32 62° SSE 23:34:13 10° ENE
Cosmos 2237 Rocket 2.1 23:25:22 10° NNW 23:31:05 89° ENE 23:34:01 30° SSE
ATLAS 2AS CENTAUR R/B 4.5 23:28:26 10° WNW 23:32:11 16° WSW 23:35:23 11° SW
USA 281 3.7 23:30:32 25° SSW 23:34:02 47° WSW 23:40:22 10° NW
Cosmos 2098 Rocket 4.0 23:28:12 10° N 23:34:52 87° E 23:38:18 30° S
Okean 2 Rocket 3.5 23:31:11 10° N 23:35:36 54° ENE 23:37:23 32° SE
Cosmos 1486 Rocket 4.2 23:32:32 23° SW 23:35:47 70° WNW 23:41:01 10° NNE
H-2A R/B 3.1 23:34:22 33° SSW 23:35:53 48° W 23:40:01 10° NNW
Cosmos 1674 Rocket 4.1 23:35:17 34° SE 23:36:38 44° E 23:40:46 10° NNE
Cosmos 1378 Rocket 3.9 23:35:17 37° SSE 23:36:40 53° E 23:40:57 10° NNE
ALOS 2 2.6 23:35:18 39° S 23:36:54 78° WSW 23:41:19 10° NNW
Cosmos 2227 Rocket 2.8 23:35:09 30° SSE 23:37:14 41° ESE 23:42:31 10° NE
Cosmos 304 Rocket 3.7 23:38:28 31° SSW 23:40:46 83° WNW 23:45:33 10° NNE
NOSS 0 Rocket 4.3 23:36:17 10° NW 23:42:17 51° WSW 23:45:12 29° S
Cosmos 783 Rocket 4.5 23:38:09 10° NNW 23:43:29 90° NNW 23:45:59 33° SSE
Cosmos 1980 3.7 23:38:50 10° NNW 23:44:29 70° WSW 23:47:07 32° S
Meteor 1-24 Rocket 3.7 23:42:32 29° SSW 23:45:37 83° WNW 23:51:16 10° N
SL-4 R/B 2.2 23:42:28 10° WNW 23:46:24 50° SSW 23:47:03 45° S
Cosmos 332 Rocket 4.0 23:48:04 36° SSE 23:49:45 55° ESE 23:54:33 10° NNE
Cosmos 1354 Rocket 4.0 23:49:34 33° SSW 23:52:03 80° ESE 23:57:23 10° NNE
SJ 16-02 4.4 23:54:00 10° WNW 23:54:50 10° NW 23:55:41 10° NW
